Tracking 19832 objects as of 25-Aug-2019
HD Live streaming from Space Station
objects crossing your sky now

METEOR 2-5 DEB

Track METEOR 2-5 DEB now!
10-day predictions


NORAD ID: 35254
Int'l Code: 1979-095V
Perigee: 752.1 km
Apogee: 768.3 km
Inclination: 81.2 °
Period: 99.9 minutes
Semi major axis: 7131 km
RCS: 0.0087 m2 (small)
Launch date: October 31, 1979
Source: Commonwealth of Independent States (former USSR) (CIS)
Launch site: PLESETSK MISSILE AND SPACE COMPLEX (PKMTR)

Note: This is SATELLITE DEBRIS
aabbcc
Your satellite tracking list
Your tracking list is empty




NASA's NSSDC Master Catalog

Two Line Element Set (TLE):
1 35254U 79095V   19236.76872614  .00000718  00000-0  21632-3 0  9994
2 35254  81.2040 262.9364 0011348  63.3805 296.8544 14.41650115825719
Source of the keplerian elements: AFSPC